Location: Grasslands National Park East Block
(49.0708°N, 106.5295°W)
Time: 08:28:14
(UTC-06:00)

SR - Pass Details

Date: 29 October 2019
Orbit: 574 x 882 km, 66.7° (Epoch: 16 November)

Event Time Altitude Azimuth Distance (km) Brightness Sun altitude
Exits shadow 03:44:19 26° 39° (NE) 1,669 ? -39.5°
Drops below altitude 10° 03:48:51 10° 89° (E) 2,540 ? -38.9°
Sets 03:51:46 0° 101° (ESE) 3,466 ? -38.5°
